PE1EDR Weather Reports


time (UTC)temp
F
wind
direction
speed
knots
gust
knots
rain 1hr
in
rain 24hr
in
rain mn
in
humidity
%
barometer
mb
20260506093813 57 63 3.5 9.6 0.00 0.09 0.01 61 1007.7
20260506093314 57 94 2.6 9.6 0.00 0.09 0.01 62 1007.6
20260506092809 57 79 3.5 10.4 0.00 0.09 0.00 66 1007.7
20260506092316 56 42 3.5 10.4 0.00 0.09 0.00 68 1007.7
20260506091814 56 30 3.5 9.6 0.00 0.09 0.00 68 1007.6
20260506090812 56 59 3.5 7.0 0.00 0.09 0.00 70 1007.6
20260506090325 56 67 3.5 0.0 0.00 0.00 0.00 69 1007.6
20260506083830 56 63 4.3 10.4 0.00 0.09 0.02 73 1007.5
20260506083349 56 59 3.5 10.4 0.00 0.09 0.02 74 1007.5
20260506082836 56 36 3.5 14.8 0.00 0.09 0.02 77 1007.5
20260506081822 55 86 4.3 10.4 0.00 0.09 0.02 78 1007.4
20260506081333 55 66 4.3 10.4 0.00 0.09 0.00 77 1007.4
20260506080758 55 71 3.5 7.0 0.00 0.09 0.00 79 1007.4
20260506080326 55 18 4.3 0.0 0.00 0.00 0.00 79 1007.4
20260506071613 55 30 3.5 8.7 0.00 0.09 0.00 80 1007.2
20260506071117 55 53 4.3 13.9 0.00 0.09 0.00 81 1007.2
20260506070611 55 86 4.3 13.9 0.00 0.09 0.00 82 1007.2
20260506070129 54 130 4.3 0.0 0.00 0.00 0.00 84 1007.2
20260506061949 51 43 2.6 9.6 0.00 0.09 0.00 89 1007.0
20260506060959 51 57 4.3 0.0 0.00 0.00 0.00 89 1007.0